Meridian, MS

11:51 PM CST on December 15, 2019 (GMT -0600)
Key

Weather History for KMEI - October, 2019

Change the Weather History Date:

Sunday, October 6, 2019

  Actual Average Record
Temperature  
Mean Temperature 81 °F 68 °F  
Max Temperature 91 °F 80 °F 95 °F (1954)
Min Temperature 70 °F 55 °F 38 °F (2010)
Degree Days  
Heating Degree Days 0 2  
Month to date heating degree days 0 8  
Since 1 July heating degree days 0 15  
Cooling Degree Days 16 4  
Month to date cooling degree days 122 30  
Year to date cooling degree days 2754 1953  
Growing Degree Days 31 (Base 50)    
Moisture  
Dew Point 68 °F    
Average Humidity 67    
Maximum Humidity 84    
Minimum Humidity 46    
Precipitation  
Precipitation 0.00 in 0.11 in 1.45 in (1965)
Month to date precipitation T 0.68  
Year to date precipitation 43.18 43.07  
Sea Level Pressure  
Sea Level Pressure 30.04 in    
Wind  
Wind Speed 5 mph ()    
Max Wind Speed 17 mph    
Max Gust Speed 22 mph    
Visibility 10.0 miles    
Events      
T = Trace of Precipitation, MM = Missing Value Source: Averaged Metar Reports

Daily Weather History Graph

Daily Weather History Graph

Search for Another Location

Airport or City:

Astronomy

Oct. 06, 2019 Rise Set
Actual Time 6:52 AM CDT 6:33 PM CDT
Civil Twilight 6:27 AM CDT 6:58 PM CDT
Nautical Twilight 5:59 AM CDT 7:26 PM CDT
Astronomical Twilight 5:30 AM CDT 7:54 PM CDT
Moon 2:47 PM CDT (10/6) 12:15 AM CDT (10/6)
Length of Visible Light 12h 30m
Length of Day
11h 41m
First Quarter, 60% of the Moon is Illuminated
Oct 6
First Quarter
Oct 13
Full
Oct 21
Last Quarter
Oct 27
New
Nov 4
First Quarter

Hourly Weather History & Observations

Time (CDT) Temp. Heat Index Dew Point Humidity Pressure Visibility Wind Dir Wind Speed Gust Speed Precip Events Conditions
12:58 AM 75.0 °F - 66.0 °F 73% 30.01 in 10.0 mi East 5.8 mph - N/A   Clear
1:58 AM 73.0 °F - 66.9 °F 81% 30.01 in 10.0 mi Calm Calm - N/A   Mostly Cloudy
2:58 AM 75.9 °F - 66.9 °F 74% 30.02 in 10.0 mi ESE 6.9 mph - N/A   Partly Cloudy
3:58 AM 75.0 °F - 66.9 °F 76% 30.01 in 10.0 mi ENE 4.6 mph - N/A   Clear
4:58 AM 75.0 °F - 68.0 °F 79% 30.03 in 10.0 mi NE 5.8 mph - N/A   Mostly Cloudy
5:58 AM 75.0 °F - 68.0 °F 79% 30.05 in 10.0 mi ENE 5.8 mph - N/A   Overcast
6:58 AM 75.0 °F - 68.0 °F 79% 30.06 in 10.0 mi Calm Calm - N/A   Mostly Cloudy
7:58 AM 75.9 °F - 68.0 °F 76% 30.07 in 10.0 mi ESE 4.6 mph - N/A   Clear
8:58 AM 79.0 °F - 69.1 °F 72% 30.08 in 10.0 mi ESE 10.4 mph - N/A   Clear
9:58 AM 82.0 °F 85.9 °F 70.0 °F 67% 30.09 in 10.0 mi ESE 11.5 mph - N/A   Clear
10:54 AM 84.2 °F 88.4 °F 69.8 °F 62% 30.10 in 10.0 mi SSE 10.4 mph - N/A   Mostly Cloudy
10:58 AM 84.9 °F 89.4 °F 70.0 °F 61% 30.09 in 10.0 mi Variable 5.8 mph - N/A   Mostly Cloudy
11:24 AM 87.1 °F 92.0 °F 70.0 °F 57% 30.10 in 10.0 mi East 10.4 mph - N/A   Scattered Clouds
11:58 AM 87.1 °F 91.3 °F 69.1 °F 55% 30.07 in 10.0 mi ESE 6.9 mph - N/A   Scattered Clouds
1:58 PM 90.0 °F 92.8 °F 66.9 °F 46% 30.02 in 10.0 mi ESE 8.1 mph - N/A   Scattered Clouds
2:58 PM 88.0 °F 90.7 °F 66.9 °F 49% 30.01 in 10.0 mi South 12.7 mph - N/A   Partly Cloudy
3:58 PM 90.0 °F 92.8 °F 66.9 °F 46% 29.99 in 10.0 mi SE 12.7 mph 18.4 mph N/A   Clear
4:58 PM 89.1 °F 92.1 °F 66.9 °F 48% 29.99 in 10.0 mi ESE 10.4 mph - N/A   Clear
5:58 PM 86.0 °F 88.2 °F 66.0 °F 51% 29.99 in 10.0 mi SE 6.9 mph - N/A   Partly Cloudy
6:58 PM 82.9 °F 85.0 °F 66.0 °F 56% 30.00 in 10.0 mi SE 3.5 mph - N/A   Clear
7:58 PM 78.1 °F - 66.9 °F 68% 30.01 in 10.0 mi South 3.5 mph - N/A   Clear
8:58 PM 75.0 °F - 66.9 °F 76% 30.02 in 10.0 mi SW 3.5 mph - N/A   Clear
9:58 PM 73.0 °F - 66.9 °F 81% 30.04 in 10.0 mi Calm Calm - N/A   Clear
10:58 PM 73.0 °F - 66.0 °F 79% 30.05 in 10.0 mi Calm Calm - N/A   Clear
11:58 PM 72.0 °F - 66.9 °F 84% 30.04 in 10.0 mi Calm Calm - N/A   Clear